Regional Weather Roundup
Issued by NWS

Home | Current Version | Previous Version | Text Only | Print | Product List | Glossary Off
Versions: 1 2 3 4 5 6 7 8 9 10 11 12 13 14 15 16 17 18 19 20 21 22 23 24 25 26 27 28 29 30 31 32 33 34 35 36 37 38 39 40 41 42 43 44 45 46 47 48 49 50

000
ASUS43 KDTX 140510
RWRMI
MICHIGAN HOURLY REGIONAL WEATHER ROUNDUP
NATIONAL WEATHER SERVICE DETROIT/PONTIAC MI
1200 AM EST SUN FEB 14 2016

NOTE: "FAIR" INDICATES FEW OR NO CLOUDS BELOW 12,000 FEET WITH NO
SIGNIFICANT WEATHER AND/OR OBSTRUCTION TO VISIBILITY.

MIZ047>049-052>055-059>063-066>070-074>076-081>083-140600-
SOUTHEAST LOWER MICHIGAN

CITY           SKY/WX    TMP DP  RH WIND       PRES   REMARKS
ADRIAN         CLOUDY     9   5  84 NW3       30.47S
ALMA           CLEAR      7   1  78 W3        30.46S
ANN ARBOR      CLEAR     -3  -6  87 W3        30.46R
BAD AXE        CLEAR     -7 -11  83 CALM      30.45R
CARO           CLOUDY    -2  -8  78 CALM      30.45S
DETROIT CITY   CLEAR      6  -2  69 CALM      30.47R
DETROIT        PTCLDY     7   2  80 CALM      30.48S
FLINT          CLOUDY    -3 -10  72 CALM      30.46R
GROSSE ILE     CLEAR      9   3  78 CALM      30.47R
HILLSDALE      CLOUDY     9  -2  61 NW6       30.42S WCI  -1
HOWELL         CLOUDY     1  -3  85 CALM      30.44S

CITY           SKY/WX    TMP DP  RH WIND       PRES   REMARKS
JACKSON        CLOUDY     6  -3  66 W3        30.45R
LAMBERTVILLE   CLOUDY    11   2  66 CALM      30.48S
LANSING        CLEAR      8   0  69 W3        30.47R
LAPEER         CLOUDY    -5  -8  86 CALM      30.45R
MASON          CLOUDY     6   1  80 CALM      30.45S
MONROE         CLEAR      6   2  83 CALM      30.47S
MT. CLEMENS    CLEAR      1  -6  71 W1        30.45S
PONTIAC        CLOUDY    -1  -5  82 W3        30.43R
PORT HOPE        N/A     12   0  58 NW9       30.42S WCI   0
PORT HURON     CLOUDY    -8 -11  84 CALM      30.46S
TRI CITIES     CLOUDY     9   1  70 W6        30.47R WCI  -1
MIDLAND        CLOUDY     6   1  78 CALM      30.46R
TROY           CLEAR      9   2  74 CALM      30.47S
SAGINAW HB     CLOUDY     9   3  78 SW3       30.46S
$$
MIZ043>046-050>051-056>058-064>065-071>073-077>080-140600-
SOUTHWEST LOWER MICHIGAN

CITY           SKY/WX    TMP DP  RH WIND       PRES   REMARKS
BATTLE CREEK   CLOUDY    10  -1  61 N5        30.45S WCI   2
BENTON HARBOR  CLOUDY    15   6  67 S3        30.47S
BIG RAPIDS     PTCLDY     5   1  83 W3        30.42S
COLDWATER      CLOUDY    11   6  81 CALM      30.45S
FREMONT        CLOUDY    10   3  74 S3        30.46R
HOLLAND        CLOUDY    12   4  70 SE5       30.48S WCI   4
GRAND RAPIDS   PTCLDY    11   0  61 CALM      30.47R
IONIA          FAIR       6  -1  73 W6        30.46R WCI  -4
KALAMAZOO      CLOUDY    12   4  70 NE3       30.46S
LUDINGTON      CLOUDY    13   6  72 E3        30.45F
MARSHALL       CLOUDY    10  -1  63 CALM      30.45S
MOUNT PLEASANT MOCLDY     8   1  72 W5        30.44R WCI   0
MUSKEGON       CLOUDY    13   3  64 E3        30.48S
SOUTH HAVEN    LGT SNOW  13   9  82 E5        30.47S WCI   5
$$
MIZ016>042-140600-
NORTHERN LOWER MICHIGAN

CITY           SKY/WX    TMP DP  RH WIND       PRES   REMARKS
ALPENA         CLOUDY     1  -8  66 CALM      30.42S
BEAVER ISLAND  MOCLDY    13   4  67 W7        30.41S WCI   2
BELLAIRE       LGT SNOW  10   7  87 CALM      30.43F
CADILLAC       CLOUDY     3  -1  83 SW3       30.37S
CHARLEVOIX     CLOUDY    14   2  59 NW9G16    30.44S WCI   2
FRANKFORT      CLOUDY    14   4  66 SE3       30.43F
GAYLORD        FLURRIES   2  -2  83 CALM      30.35S
GRAYLING       CLOUDY     1  -3  82 CALM      30.38F
HARBOR SPRINGS CLEAR      0  -3  86 NE3       30.41S
HOUGHTON LAKE  CLOUDY     7   4  87 CALM      30.39S
MANISTEE       CLOUDY    10   1  67 CALM      30.44F
OSCODA         CLEAR     -8 -13  79 CALM      30.44S
PELLSTON       MOCLDY    -9 -14  78 CALM      30.41S
ROGERS CITY    LGT SNOW   6  -1  75 W5        30.42S WCI  -3
TRAVERSE CITY  CLOUDY    13   3  64 SW7       30.42F WCI   3
$$
MIZ007>008-015-140600-
EASTERN UPPER MICHIGAN

CITY           SKY/WX    TMP DP  RH WIND       PRES   REMARKS
KINROSS        CLOUDY    -4  -8  84 E7        30.41R WCI -18
MACKINAC ISLAN FLURRIES   4   1  86 N3        30.40S
NEWBERRY       LGT SNOW   4   2  89 W9        30.37S WCI -10
S. S. MARIE    CLOUDY    -3 -12  65 E3        30.43R
MUNISING         N/A      7   1  76 VRB3      30.41S
$$
MIZ004>006-011>014-085-140600-
CENTRAL UPPER MICHIGAN

CITY           SKY/WX    TMP DP  RH WIND       PRES   REMARKS
MANISTIQUE     CLEAR     -1  -6  76 NW5       30.41F WCI -11
ESCANABA       CLOUDY    -6 N/A N/A NW3       30.42F
MENOMINEE      CLOUDY    -2  -8  78 CALM      30.42F
SAWYER-GWINN   CLOUDY   -12 -15  85 CALM      30.35F
$$
MIZ001>003-009>011-084-140600-
WESTERN UPPER MICHIGAN

CITY           SKY/WX    TMP DP  RH WIND       PRES   REMARKS
IRON MOUNTAIN  CLOUDY   -13 -18  78 CALM      30.36F
HOUGHTON       CLOUDY    -3  -7  82 CALM      30.34F
COPPER HARBOR    N/A      7   3  84 VRB6      30.39R WCI  -3
IRONWOOD       CLOUDY   -18 -26  69 CALM      30.31S
$$

ABBREVIATIONS USED IN REMARKS
   TC - TEMPERATURE IN CELSIUS
  WCI - WIND CHILL INDEX
   HX - HEAT INDEX
  VSB - VISIBILITY




USA.gov is the U.S. government's official web portal to all federal, state and local government web resources and services.